Theta_e
298 298 299 301 306 305 304 304 304 305 308 310 309 310 312 307 294 290 303 310 311 314 318 320 321 322 324 326 328 331 332 330 330 330 331 331 333 333 333 333 333 334 334 334 336 338 338 339 339 340 341 343 345 346 347 348 350 350 351 351 350 350 350 350 349 350 351 352 352 353 354 353 352 352 352 352 352 351 352 351 350 350 350 350 350 350 352
298 300 301 302 304 304 303 303 304 305 308 309 311 311 314 310 310 311 313 314 314 319 320 322 323 327 328 329 331 332 331 331 331 330 329 331 332 333 333 333 333 334 335 335 337 337 337 338 339 340 341 342 344 345 346 348 349 350 351 350 350 350 349 350 350 350 350 350 350 350 351 351 351 351 351 351 350 350 350 350 351 351 350 349 348 348 349
296 298 302 301 302 301 300 301 304 306 306 308 311 312 313 315 315 315 315 315 314 320 324 324 328 329 330 330 329 330 331 332 333 330 329 331 332 334 334 333 334 335 336 337 337 337 337 338 339 340 341 342 344 346 347 348 348 349 349 348 348 348 349 349 348 347 347 348 348 348 349 350 350 350 350 350 350 351 352 353 354 355 354 350 349 347 347
291 296 298 300 301 301 299 297 301 304 304 304 308 308 312 311 310 314 316 313 313 320 325 325 327 326 325 324 326 327 329 331 332 331 331 332 334 335 335 335 335 335 336 336 337 337 338 339 340 340 341 342 344 344 346 346 348 348 348 347 346 345 345 345 345 345 346 346 346 346 347 347 348 350 351 350 350 350 352 353 354 354 351 348 349 349 348
287 293 297 300 298 293 293 294 300 303 303 304 308 313 315 313 312 310 308 309 315 322 325 322 322 323 323 324 325 327 329 330 331 331 332 333 334 335 335 336 336 336 336 337 337 337 338 338 339 340 342 342 341 343 344 344 344 344 345 345 342 340 342 344 344 344 345 345 345 345 346 346 346 348 351 352 351 351 351 353 353 349 348 348 349 349 349
286 291 294 296 292 286 286 297 305 308 305 305 307 309 311 314 314 312 314 314 316 319 319 319 319 320 322 324 327 330 329 330 331 331 331 330 331 332 334 334 333 333 334 335 336 337 338 339 341 341 342 341 341 342 343 343 342 341 341 341 341 341 342 343 343 343 343 344 344 344 344 346 347 347 350 350 350 348 344 341 341 342 345 346 348 349 347
288 289 290 290 284 286 298 305 309 313 311 312 311 312 313 314 315 314 313 314 314 316 318 318 319 321 325 327 328 329 330 331 330 329 329 328 327 327 328 328 329 330 331 332 333 335 337 339 339 340 340 341 340 341 341 340 340 339 339 339 339 340 341 341 342 343 343 343 343 343 344 344 345 345 345 343 343 343 342 341 341 342 343 345 348 348 345
287 287 285 281 281 292 301 303 309 312 311 308 307 305 309 313 314 314 312 314 315 316 318 320 323 322 323 325 326 327 328 329 329 328 327 326 326 326 327 327 328 329 330 330 331 332 336 338 339 340 339 340 339 338 340 338 338 338 338 337 337 337 338 339 339 340 341 341 343 343 343 342 342 340 338 339 340 342 342 342 343 344 344 344 343 344 345
287 284 281 286 291 296 299 302 303 306 302 302 302 297 299 307 313 313 313 315 318 319 320 321 322 324 325 321 322 326 327 327 328 328 327 327 327 327 327 328 327 329 329 329 330 331 331 331 333 334 336 337 336 336 335 335 335 334 334 333 334 335 335 337 338 338 338 339 339 339 340 340 339 338 338 339 340 342 339 340 341 342 344 345 345 344 345
288 286 286 284 284 285 290 298 305 310 308 308 306 303 299 304 312 315 315 315 318 318 319 320 320 321 318 315 316 324 327 328 327 327 327 327 327 327 327 327 328 329 329 331 331 330 330 330 331 332 333 332 332 331 331 331 332 331 332 331 331 332 332 333 335 336 337 337 338 338 338 337 337 338 339 339 340 342 338 338 339 341 343 344 346 345 346
288 286 282 282 284 287 294 299 303 309 310 309 304 298 294 300 311 317 317 317 319 318 318 317 317 315 312 311 317 323 326 326 327 325 325 325 325 325 325 324 324 325 327 328 328 328 328 327 328 331 331 330 329 328 328 329 329 329 328 328 329 330 330 332 333 333 335 336 336 337 337 337 339 339 339 339 340 340 339 339 338 339 344 343 340 334 336
289 285 284 284 287 291 300 300 303 307 308 306 300 291 289 299 312 316 318 318 318 318 316 316 314 313 311 313 318 326 326 327 326 325 324 324 324 325 325 326 326 326 327 325 324 325 325 325 327 328 329 328 327 325 325 327 326 326 326 327 328 329 330 330 331 333 335 336 336 337 337 337 337 337 338 337 337 337 337 337 336 334 333 332 329 328 329
292 293 284 285 289 297 300 302 304 306 309 303 292 286 294 303 313 316 318 318 318 317 316 314 310 312 317 322 324 325 325 324 324 324 325 324 325 324 323 324 325 323 323 322 321 321 322 324 325 327 327 325 324 325 324 322 322 323 324 326 325 324 325 326 328 330 331 332 333 333 334 334 335 335 336 336 336 335 334 334 333 331 330 329 328 328 330
288 287 288 287 286 293 299 302 306 308 303 293 290 298 302 310 313 315 318 318 319 319 316 314 313 320 325 326 325 324 324 322 321 321 322 323 323 324 326 325 322 319 319 319 319 320 321 321 322 322 322 322 321 321 320 319 321 324 325 324 323 322 321 321 321 323 326 328 330 330 332 331 330 331 334 337 336 335 333 331 329 329 329 329 328 328 329
289 284 285 285 283 296 304 305 305 308 298 296 298 306 312 315 315 316 316 317 317 317 315 319 323 324 324 324 323 323 322 320 319 319 319 319 319 320 320 320 322 320 318 319 319 320 321 321 321 321 320 319 319 319 318 320 323 325 325 324 322 321 320 320 321 321 321 323 325 327 328 330 330 330 332 334 335 333 330 328 327 325 325 326 326 325 324
284 285 285 284 290 297 302 303 298 302 305 306 306 311 311 313 315 316 315 315 316 317 319 322 322 323 322 322 322 321 321 320 319 318 317 317 317 318 319 320 321 322 320 320 319 320 320 321 321 322 322 321 321 321 319 322 324 326 324 323 321 321 322 320 320 323 323 324 323 325 327 328 328 327 329 331 333 333 331 328 326 325 325 326 325 324 322
290 287 289 292 296 301 304 304 303 304 309 312 313 315 313 314 314 316 316 316 317 320 322 322 323 321 321 320 321 320 319 319 317 315 315 316 317 318 319 320 322 320 318 318 318 319 319 320 321 321 321 321 321 320 321 325 324 323 323 323 321 320 320 320 321 320 321 320 321 322 322 324 325 326 326 328 327 328 330 328 326 325 325 326 325 324 324
299 299 300 303 304 305 307 310 310 310 313 315 317 317 315 315 317 318 317 318 319 320 322 321 320 320 319 319 319 320 319 318 316 316 315 316 317 318 319 319 320 319 319 318 318 318 318 319 319 321 319 320 320 320 322 325 323 324 323 322 321 319 319 320 319 319 317 316 316 316 317 317 319 320 321 326 326 325 327 329 328 327 327 325 324 324 323
294 293 300 303 304 306 307 309 311 311 313 312 313 314 316 317 319 319 320 320 320 320 320 320 319 319 319 318 318 319 318 317 315 314 314 314 316 317 317 319 320 318 318 317 317 317 317 318 319 320 320 320 320 321 322 322 324 325 324 322 323 319 320 320 319 317 316 316 315 316 314 314 313 316 318 317 320 322 321 322 327 332 330 327 326 327 324
294 295 301 304 306 307 310 309 310 310 312 314 314 314 317 318 320 320 320 320 320 321 320 320 320 319 319 318 317 317 317 316 315 314 314 314 315 315 316 318 318 317 316 316 316 317 317 317 318 319 319 318 318 319 320 322 324 327 327 324 318 318 320 324 325 325 325 326 317 313 313 312 310 311 313 314 314 314 314 314 319 324 327 328 327 326 324
299 300 303 304 306 307 309 311 312 313 314 314 314 314 316 317 318 319 320 321 320 320 320 320 321 320 319 319 318 317 316 315 315 314 314 314 314 314 315 316 317 315 316 316 317 317 316 316 317 317 317 317 318 318 320 321 322 323 325 325 321 317 317 318 321 322 316 316 314 312 311 311 310 310 310 311 313 313 313 311 313 316 321 322 322 321 323
295 298 300 304 300 299 305 309 311 313 315 316 314 315 316 317 316 317 318 318 320 319 319 321 322 321 319 319 319 318 317 316 314 314 314 314 314 314 315 316 316 317 317 316 316 316 315 316 317 317 316 317 317 319 319 319 320 322 323 321 318 318 318 316 316 316 316 314 315 314 311 310 310 311 309 302 306 311 310 310 301 298 303 316 316 317 315
296 300 303 306 303 305 306 310 313 314 315 315 314 315 315 315 317 318 317 317 317 318 319 321 322 320 319 319 319 318 316 315 314 315 315 315 315 315 316 316 315 316 317 318 317 317 316 318 317 318 317 316 316 317 317 318 318 318 319 319 318 317 321 321 322 321 316 312 311 310 310 311 313 314 311 309 296 297 307 306 297 292 292 294 299 304 316
300 303 307 307 308 307 308 312 314 314 315 315 314 315 317 317 318 318 318 318 317 317 318 319 320 319 318 318 319 316 315 316 316 315 315 315 316 317 317 316 316 317 316 316 316 317 316 317 316 316 316 316 315 317 316 317 317 318 318 318 316 317 316 320 328 323 316 320 317 314 311 312 313 314 311 312 312 301 294 298 297 293 292 291 292 295 296
303 305 308 307 309 311 312 312 313 314 316 315 313 313 314 315 316 318 317 317 318 318 318 318 319 320 319 318 318 317 316 316 318 318 322 320 319 317 316 316 317 317 317 316 314 314 314 315 316 317 315 317 316 317 316 315 317 319 318 318 314 314 320 326 326 331 326 325 322 317 315 318 317 316 314 316 313 315 313 298 295 294 293 292 292 293 293
306 307 308 309 310 310 311 311 311 312 313 315 315 315 318 318 316 316 316 317 317 318 318 318 317 319 321 320 320 321 321 322 323 320 316 315 316 316 316 316 317 317 315 315 315 315 315 317 315 315 317 317 317 315 317 316 316 317 316 316 314 317 320 318 318 320 321 323 321 319 319 316 315 314 319 318 316 315 315 317 314 305 299 295 293 295 296
309 310 310 308 307 307 310 310 309 311 313 315 315 315 316 317 319 315 315 315 315 317 317 317 318 319 321 321 322 320 319 320 320 318 318 318 317 316 317 317 317 318 317 315 317 322 325 322 318 317 316 315 314 317 317 314 314 315 315 315 314 326 327 327 313 318 316 317 318 316 317 320 320 324 322 325 324 320 317 316 315 311 313 313 303 292 301
310 311 312 307 304 307 307 308 311 312 314 313 313 312 313 314 314 314 313 313 313 313 314 315 316 315 315 315 316 315 316 316 315 316 316 316 316 317 317 317 317 318 318 318 318 322 320 317 317 317 317 316 315 316 316 314 314 313 314 312 312 312 311 319 319 315 316 315 316 319 320 315 316 323 325 323 323 324 322 321 319 317 316 313 313 309 298
308 307 307 308 310 308 307 309 310 311 310 311 312 312 313 313 312 312 311 312 312 312 312 312 314 314 313 313 314 314 314 314 314 314 313 314 315 314 316 317 317 319 318 318 317 317 317 317 316 316 316 316 317 316 316 315 315 314 315 313 311 311 311 311 315 315 314 315 314 314 320 320 319 317 319 319 323 324 321 320 321 320 315 313 313 313 313
305 306 308 307 306 307 309 308 308 308 309 309 310 310 312 312 310 310 310 310 311 310 310 311 311 311 312 311 312 312 311 309 309 309 310 311 313 314 315 317 318 317 316 315 315 315 315 315 315 316 316 316 318 318 317 316 316 316 315 314 312 311 310 310 313 316 315 314 316 322 323 321 319 316 317 316 317 319 320 320 322 321 316 313 316 313 313
305 307 307 306 306 308 308 306 307 308 308 308 309 309 309 311 309 309 308 309 309 308 309 310 310 309 309 309 309 309 308 307 307 307 307 307 308 310 313 314 312 310 310 311 312 313 313 312 313 314 315 316 318 318 318 317 316 316 316 315 315 318 319 320 320 316 314 318 320 320 320 321 318 318 317 318 316 316 315 316 322 322 319 314 315 316 314
306 306 306 305 305 305 304 305 306 306 306 307 308 308 308 309 308 308 308 308 308 308 308 309 308 308 307 308 308 307 306 306 306 306 305 306 306 307 307 309 311 311 307 309 310 311 310 310 310 312 313 315 316 318 318 318 316 317 316 319 318 316 316 319 320 320 320 321 321 320 321 320 317 317 318 319 319 319 318 315 316 319 318 315 314 316 315
305 303 303 303 303 303 303 303 305 304 305 307 308 308 309 310 310 310 309 309 308 309 309 308 308 307 307 307 306 305 305 305 304 304 304 304 304 306 307 306 306 306 306 307 307 307 307 308 309 311 313 314 315 316 317 317 316 316 316 314 315 316 321 320 319 320 320 321 320 319 318 319 319 319 319 320 320 320 318 317 317 318 318 317 314 314 312
308 307 306 306 306 304 304 303 303 304 303 305 306 307 308 309 310 310 309 309 309 308 308 307 306 307 306 306 305 305 305 305 304 303 302 303 303 304 304 305 305 305 305 306 308 308 308 308 309 312 313 314 314 315 316 316 316 315 315 315 316 316 317 318 317 319 319 319 319 320 319 320 319 318 319 319 319 319 319 319 319 318 317 316 314 311 303
311 310 310 308 308 307 307 305 304 305 305 305 306 307 308 309 310 309 310 309 308 307 306 306 305 305 305 304 303 303 303 302 302 302 302 303 303 303 303 304 304 305 305 306 307 308 308 307 312 314 311 312 311 311 312 315 315 316 315 315 317 318 318 320 319 318 318 318 319 317 316 316 317 318 319 318 317 317 317 319 319 319 317 315 312 309 307
308 308 308 307 307 307 306 306 307 307 307 307 307 307 308 308 310 311 309 307 307 306 305 305 304 304 303 303 302 302 302 301 302 302 302 302 302 303 303 304 304 303 304 304 307 308 309 309 320 319 315 313 312 310 312 317 317 315 317 317 318 319 319 320 320 320 319 318 316 316 315 317 317 317 318 318 317 317 316 316 317 318 317 314 311 309 308
309 309 307 307 307 306 307 307 308 307 307 308 308 308 309 309 308 307 307 305 305 305 304 304 303 302 301 302 302 302 302 302 303 302 302 302 303 303 303 303 304 304 305 304 307 308 308 311 317 315 311 309 310 309 314 318 318 316 315 314 315 316 317 317 317 316 316 316 316 316 316 316 316 315 317 316 315 315 314 313 315 316 315 313 311 309 308
308 308 307 307 307 307 307 307 309 309 309 309 310 312 310 306 306 305 305 305 304 304 304 303 302 302 302 302 302 301 301 301 301 302 302 302 302 303 302 303 302 303 304 305 309 309 309 315 314 310 308 308 308 309 312 317 319 315 312 313 315 315 316 316 316 315 315 315 316 315 314 314 313 313 314 313 312 313 314 314 314 315 314 312 310 308 308
307 308 308 308 308 308 308 308 309 310 310 307 306 305 307 306 306 304 303 303 304 305 303 302 302 301 301 301 300 300 301 301 302 301 302 302 303 303 302 302 302 303 304 308 311 309 313 313 310 307 308 308 309 310 312 315 318 314 312 312 313 314 315 315 314 314 314 315 314 314 314 313 313 313 313 313 312 313 315 315 315 315 312 311 309 308 307
307 308 307 308 308 308 308 307 307 307 308 308 306 305 305 305 303 303 302 302 303 305 302 302 301 301 300 300 300 299 299 299 300 300 300 300 301 300 300 301 304 306 309 311 308 308 311 311 308 306 307 308 308 310 313 314 314 312 311 311 312 312 312 313 313 312 313 313 313 314 313 313 313 313 313 313 313 312 312 312 314 314 311 309 307 307 307
308 308 308 308 308 308 307 306 305 305 305 305 305 305 304 303 303 302 302 302 301 301 302 302 301 300 300 300 299 299 300 301 300 299 299 299 299 299 300 300 304 306 309 309 308 308 308 308 308 306 307 308 308 312 311 309 307 307 309 310 311 311 311 311 312 313 312 312 312 311 311 311 311 311 312 313 313 312 312 311 311 312 311 308 306 306 306
308 308 307 307 307 306 306 305 304 303 302 303 304 303 303 304 304 302 301 301 301 300 301 301 303 300 299 299 300 299 299 299 300 300 301 300 299 300 300 301 306 306 309 307 305 305 304 304 306 308 308 308 308 310 309 306 303 303 305 307 310 311 311 312 311 309 309 307 307 306 307 307 308 308 309 310 310 310 309 308 307 306 306 306 306 305 304
308 307 306 306 305 305 304 304 304 302 302 302 302 302 302 302 302 301 301 301 301 301 302 303 305 303 301 298 298 299 299 300 300 300 301 302 304 304 303 303 306 307 308 306 304 302 303 303 304 306 308 308 308 307 305 302 302 302 303 305 309 310 309 310 308 307 306 305 304 304 305 305 303 304 305 305 305 306 305 304 303 303 303 302 303 303 303
308 307 306 305 304 305 304 303 303 302 301 300 301 301 302 302 302 302 301 301 301 302 300 299 299 298 298 298 298 298 299 299 299 299 299 299 300 302 304 305 305 307 307 305 304 303 303 304 305 307 307 307 306 305 303 301 301 302 302 304 305 306 306 305 305 305 305 305 304 303 304 304 303 303 303 303 303 303 303 302 302 302 302 302 301 301 301
307 306 305 305 305 304 303 303 302 302 301 301 301 301 301 300 300 301 301 301 300 300 301 299 299 298 298 298 299 299 299 300 299 298 297 297 297 299 302 307 306 305 305 305 304 302 302 304 306 306 306 306 306 303 300 300 300 301 301 302 303 305 305 305 305 305 305 303 303 304 304 303 302 303 303 304 303 303 302 301 300 301 301 301 302 301 300
306 306 306 308 304 303 303 302 302 301 301 300 300 302 301 300 300 300 301 300 301 300 299 300 299 298 298 298 299 299 299 297 297 296 298 297 298 299 303 305 305 305 305 304 304 302 302 305 305 305 305 306 304 300 299 301 300 299 299 300 301 303 302 304 304 304 303 303 303 303 303 302 303 302 302 302 302 303 303 303 302 301 301 301 300 300 300
305 304 304 303 302 302 302 301 302 301 300 300 299 298 300 300 300 300 300 300 299 298 298 298 298 298 299 299 299 298 297 297 297 299 299 299 304 305 305 305 304 304 304 303 303 303 304 304 304 304 305 305 302 299 299 300 299 299 299 300 300 300 300 301 301 301 301 301 302 302 302 302 301 300 301 301 301 301 301 300 299 300 301 302 302 302 302
305 303 302 302 301 301 302 301 301 299 299 300 299 299 300 299 299 298 299 299 298 298 298 297 298 298 299 298 299 299 299 299 296 296 296 297 298 300 300 298 303 304 303 302 301 302 304 304 304 304 304 303 299 298 299 300 301 301 300 300 300 300 299 299 299 299 299 300 299 298 298 297 297 298 299 299 299 299 300 300 300 300 301 302 301 301 301
304 303 303 302 301 301 301 300 300 301 299 300 301 299 299 299 298 298 298 298 298 298 298 297 297 298 299 300 299 298 299 299 295 296 296 296 298 298 299 305 305 304 302 298 296 296 304 303 303 303 303 301 298 298 298 299 302 302 302 302 302 301 302 301 300 300 300 299 299 299 298 298 297 298 298 299 300 300 301 300 300 300 300 300 300 300 300
303 303 302 301 301 300 301 300 300 299 299 301 299 299 299 299 298 297 300 298 299 301 298 298 297 297 296 298 300 298 297 299 297 297 299 298 296 298 301 301 302 304 303 296 296 297 299 303 302 304 302 298 298 302 300 300 301 303 302 302 302 301 302 301 301 301 301 301 300 300 300 300 300 300 300 300 300 300 300 300 300 301 301 301 300 300 300
303 303 302 303 302 302 302 302 301 300 300 300 299 300 301 299 299 301 299 300 300 300 298 298 297 296 296 297 296 297 297 298 300 302 300 300 300 302 302 301 302 304 305 304 298 293 290 290 292 299 300 301 297 300 303 301 300 302 302 302 302 302 302 302 302 302 301 301 300 300 300 299 299 299 300 301 301 301 301 301 301 300 300 300 300 299 299
304 303 303 302 302 301 300 300 301 301 301 301 301 301 300 300 301 300 300 305 300 300 298 298 297 297 296 298 301 298 297 299 302 302 303 302 303 301 304 305 302 303 303 301 295 293 294 297 302 302 303 300 297 297 301 303 299 301 303 303 303 301 303 302 302 301 301 301 300 300 300 300 300 299 300 300 300 300 300 300 300 300 300 299 299 299 299
Wind_Speed
1 1 3 3 2 3 2 1 3 7 5 10 10 6 5 1 1 3 5 2 2 0 3 4 4 5 5 5 5 5 6 6 3 4 5 5 4 2 3 3 2 2 3 3 3 2 2 4 9 9 8 7 7 7 8 9 10 12 13 13 12 11 10 10 10 9 7 6 6 7 7 6 6 6 6 6 6 5 5 5 5 6 6 6 7 7 6
1 1 2 3 2 3 2 3 3 2 4 7 6 5 7 3 3 3 1 5 5 3 4 4 3 3 3 3 3 3 5 7 7 7 5 4 2 1 3 3 4 4 4 5 5 4 4 4 4 7 7 7 8 10 9 9 10 8 8 9 10 10 11 11 9 8 8 6 6 6 6 6 7 7 6 6 5 5 6 6 6 6 6 6 6 7 7
0 1 2 2 3 3 2 0 2 3 1 4 6 5 6 7 4 4 4 5 4 3 2 3 4 3 3 3 4 6 5 6 8 10 6 5 4 3 3 3 5 5 5 6 6 7 7 6 6 5 5 6 7 7 7 8 9 8 9 9 9 11 11 8 7 6 6 6 5 6 6 6 6 6 6 6 6 5 5 5 5 5 5 6 6 5 6
1 1 2 4 1 1 1 3 3 5 6 4 2 3 4 5 4 3 2 1 2 2 4 3 5 5 6 6 6 5 5 6 7 9 8 6 6 6 5 5 5 5 6 6 7 7 7 6 6 5 5 6 6 8 7 7 4 6 7 8 8 4 3 3 6 7 6 6 5 5 5 5 5 6 5 5 6 6 5 5 3 1 1 1 0 1 2
2 1 3 2 1 3 3 3 2 1 1 1 2 1 4 4 4 2 2 2 5 3 4 6 6 6 6 7 5 4 5 4 5 7 7 7 6 6 6 6 6 7 7 6 5 5 4 4 4 3 4 6 8 8 8 6 7 5 4 4 6 7 4 4 4 5 5 6 5 4 4 4 4 4 4 4 5 5 5 2 3 7 7 6 5 3 1
2 2 5 1 1 1 3 2 2 3 2 3 1 2 3 4 4 2 1 1 1 8 8 7 7 5 3 1 3 2 0 3 5 6 5 6 6 6 5 4 5 5 5 5 4 7 8 7 5 4 3 4 3 4 5 5 8 9 8 5 4 7 4 1 2 3 4 4 4 3 3 2 2 2 2 3 4 7 9 10 8 6 5 5 2 3 3
1 2 1 2 2 4 2 4 2 3 5 4 4 2 0 3 3 2 3 3 5 3 5 10 5 5 6 7 7 7 7 3 5 6 6 7 8 7 7 8 7 6 6 6 4 4 4 5 5 5 4 5 6 6 8 8 6 6 5 5 5 4 6 4 3 3 4 4 3 3 3 3 3 3 4 6 6 7 7 6 5 6 8 6 2 6 8
1 2 2 1 3 3 4 7 3 0 2 2 2 4 2 2 5 5 3 1 2 1 1 2 7 9 3 6 7 8 9 8 5 7 7 7 8 8 5 6 6 6 6 6 5 4 2 4 5 4 5 6 6 5 6 7 6 8 8 7 5 3 5 5 5 5 5 4 3 3 3 4 5 7 8 8 8 6 5 4 3 3 4 5 6 5 3
2 1 3 5 3 4 0 0 2 4 2 2 3 2 5 6 5 6 5 4 5 3 2 3 1 9 2 2 5 8 9 9 9 9 9 9 9 7 7 7 7 7 7 6 6 6 6 6 5 4 4 5 7 6 7 8 8 6 6 7 7 4 4 4 6 6 7 7 7 6 4 3 4 5 5 4 7 5 5 4 1 3 4 3 4 5 6
4 4 1 2 3 1 5 6 3 1 2 3 6 4 5 2 4 5 7 6 7 3 1 1 5 3 8 5 5 6 8 8 9 10 10 9 8 8 8 8 7 6 7 7 7 7 9 8 6 4 5 6 8 8 7 7 8 7 8 5 5 5 4 4 6 6 6 7 6 5 3 3 4 5 3 2 3 1 4 5 3 5 3 2 2 1 1
3 2 2 2 2 4 4 4 3 2 2 4 5 3 6 4 8 7 8 7 7 5 4 1 3 2 7 1 3 4 6 8 9 10 9 8 8 8 8 7 8 9 9 9 8 8 9 9 7 6 6 7 7 8 7 8 8 8 7 6 5 6 6 6 6 6 6 6 6 5 4 4 5 5 5 4 3 4 4 4 4 1 1 1 5 6 5
2 5 3 3 4 1 1 6 2 3 2 5 3 1 4 3 6 6 6 6 7 6 1 3 2 1 6 6 2 4 7 8 8 8 8 9 9 8 8 7 7 8 6 8 10 11 10 8 7 8 8 9 10 11 10 9 9 8 7 6 5 6 6 6 6 6 5 6 5 4 5 5 5 5 4 4 4 5 5 4 4 4 5 6 7 6 6
2 4 1 2 4 4 4 3 5 2 3 3 2 5 3 2 5 3 4 4 5 4 2 2 1 2 0 7 7 6 6 9 9 8 8 8 8 9 8 8 8 8 8 8 9 8 7 6 6 6 8 9 10 9 9 11 10 7 5 6 6 7 7 7 7 7 6 6 6 6 5 5 4 5 4 4 3 7 7 5 5 6 6 6 8 8 7
3 3 2 4 4 6 4 2 3 4 4 2 5 5 1 5 6 3 4 6 4 4 3 2 2 4 9 8 8 7 7 8 8 8 7 8 8 8 8 10 8 7 7 7 8 9 8 7 7 6 8 11 11 10 11 10 7 4 6 7 7 8 8 8 8 7 7 7 6 5 5 4 6 5 4 4 4 5 6 7 7 5 4 7 6 6 6
2 2 2 2 0 0 1 4 2 0 2 5 4 0 2 1 4 6 2 4 5 5 4 4 8 9 9 8 9 8 7 7 7 7 7 7 6 7 8 9 9 7 6 7 7 8 6 7 6 7 11 11 10 10 11 7 5 5 7 8 7 7 9 9 8 8 8 8 6 5 5 5 5 5 4 6 5 5 6 6 7 6 6 7 7 6 5
3 2 3 2 2 1 2 1 3 3 4 1 5 3 1 0 5 4 4 1 3 5 8 10 9 9 9 9 9 8 7 7 7 7 6 6 6 7 7 7 7 7 8 8 8 7 7 7 7 8 10 10 9 10 9 4 6 7 8 8 8 8 8 8 8 7 6 6 6 5 4 4 6 6 5 4 5 4 4 5 5 5 6 6 5 5 4
3 3 5 3 2 3 3 2 3 2 4 3 3 4 3 5 3 3 5 3 3 7 10 9 9 8 6 7 7 8 7 7 7 7 5 6 6 6 7 7 6 7 8 8 8 7 7 8 7 7 7 9 9 8 4 3 5 5 6 6 6 6 6 6 6 5 6 6 6 6 7 5 5 5 6 5 5 4 4 4 4 4 4 3 3 3 3
2 1 3 2 1 2 4 1 1 2 6 7 6 1 3 1 5 5 7 5 6 7 8 10 6 6 6 7 7 7 7 7 6 6 7 7 7 7 7 7 6 6 7 7 7 8 8 7 7 7 7 7 8 3 3 4 4 5 6 6 6 5 5 5 5 6 7 7 6 6 6 6 6 5 5 5 4 4 4 3 2 3 3 3 3 3 3
3 1 2 3 1 3 1 0 0 3 7 7 10 11 2 5 6 7 6 9 8 6 7 9 9 7 7 7 6 6 7 7 7 7 7 6 6 7 7 4 5 6 6 7 7 7 8 6 7 7 7 7 6 5 5 4 4 5 5 6 6 6 6 5 5 5 6 5 5 5 5 5 6 5 5 5 5 4 3 3 2 1 1 2 2 2 2
1 1 0 1 2 3 3 1 4 6 8 9 10 10 9 3 4 6 8 9 9 5 7 9 10 8 7 8 6 6 6 6 6 6 7 7 7 6 5 4 6 6 6 6 7 7 6 5 5 6 7 6 5 5 5 5 6 6 6 5 6 5 6 5 5 4 4 7 6 5 5 5 5 4 5 4 4 3 3 2 2 3 4 4 2 1 0
1 1 1 1 2 2 4 3 5 4 6 7 10 10 9 11 9 5 3 6 10 8 8 8 10 9 6 7 7 7 6 6 6 6 6 7 7 6 6 3 4 6 5 6 6 6 5 4 5 6 6 6 6 6 6 5 6 7 6 5 6 6 5 6 5 4 4 4 4 4 4 4 5 4 3 3 3 3 3 1 1 1 2 2 2 2 1
1 6 6 6 4 0 2 2 3 7 7 11 9 5 5 8 10 11 9 5 4 4 6 8 9 9 7 6 7 7 6 6 6 6 6 6 7 7 6 6 6 5 5 6 5 5 4 4 5 5 5 5 5 6 5 5 6 7 6 6 6 6 6 6 5 5 4 4 4 3 3 3 3 4 5 5 3 2 2 4 5 4 3 2 1 1 2
5 7 5 5 3 5 3 5 4 5 7 9 8 6 3 5 7 7 7 11 6 7 5 2 8 8 8 7 8 8 6 6 5 6 7 7 6 6 5 7 7 7 5 5 5 5 4 4 5 5 5 4 4 5 5 5 6 5 5 5 5 5 5 4 4 3 4 4 4 4 3 3 3 3 2 3 4 4 4 4 3 4 5 4 6 6 3
1 3 10 8 6 8 5 6 5 9 7 5 7 4 2 5 4 7 8 2 1 6 8 8 5 9 8 7 9 9 7 6 7 6 5 6 6 6 4 5 5 5 4 4 5 4 3 4 5 5 5 5 4 4 5 4 5 5 4 4 4 3 4 3 3 3 3 3 3 3 2 2 2 2 2 3 2 2 3 3 4 4 5 5 5 6 7
1 4 7 4 2 7 6 5 5 6 7 10 8 6 7 7 4 9 9 3 4 5 10 8 7 6 10 8 8 8 7 5 7 7 7 6 5 5 5 5 4 4 3 3 4 4 4 4 4 4 4 4 4 4 4 4 5 5 4 4 4 4 3 3 2 2 2 2 1 1 1 1 0 1 2 2 3 2 3 2 3 4 5 5 5 5 6
4 7 4 4 4 8 7 6 3 3 6 8 10 6 6 7 10 8 9 7 4 7 11 10 9 8 9 10 9 9 10 9 9 8 8 7 6 6 5 4 4 3 4 5 5 5 4 4 4 4 5 6 5 5 3 4 5 5 5 5 4 4 3 2 2 2 1 2 2 2 2 2 1 1 1 2 2 2 1 1 1 1 3 5 6 6 3
7 10 12 11 7 2 4 8 8 5 4 5 12 10 8 9 11 10 8 8 8 8 10 10 10 9 10 10 12 11 12 9 10 9 8 8 7 4 3 5 6 6 6 5 4 3 4 3 4 4 5 6 6 5 4 4 4 4 4 4 3 2 4 3 2 1 0 0 1 1 2 1 1 1 1 1 2 2 2 2 2 2 2 0 1 1 1
10 10 12 14 10 11 6 0 7 6 6 10 11 11 8 9 11 11 11 10 10 9 8 6 10 12 11 9 12 11 11 12 10 9 10 8 6 5 6 6 6 6 6 6 5 4 5 6 6 7 7 5 4 3 4 5 4 3 2 2 2 3 3 2 2 1 1 1 1 2 1 2 1 1 2 2 2 2 2 2 3 2 2 3 1 2 3
6 5 4 2 8 7 6 8 8 8 6 5 8 8 10 12 10 10 9 8 8 9 10 8 8 10 11 9 11 11 10 10 11 10 7 6 6 6 6 8 8 8 8 8 7 7 7 7 7 7 6 6 6 3 3 4 3 2 2 3 3 3 3 3 2 2 2 1 2 3 2 2 1 2 3 3 3 2 2 2 3 3 3 2 2 2 2
4 3 8 10 10 12 13 9 9 7 9 7 9 6 10 13 10 8 8 7 9 10 7 8 10 9 9 10 9 10 11 10 8 7 8 8 7 7 6 6 9 9 9 10 8 7 8 8 8 8 7 6 5 5 4 4 4 3 2 1 1 2 3 3 3 2 2 3 4 3 3 2 2 2 3 3 3 2 2 2 3 3 3 3 3 4 4
4 6 10 10 10 9 13 11 8 9 8 6 9 9 5 10 11 9 7 7 8 8 6 9 9 10 10 10 9 9 9 9 9 9 8 8 8 8 8 9 9 8 7 6 7 7 7 7 7 7 6 6 6 6 6 5 5 4 4 4 4 3 4 4 2 2 2 2 2 3 3 3 3 3 3 3 3 3 2 2 3 3 3 3 3 4 4
12 10 10 8 10 9 8 7 9 8 7 7 10 10 10 11 11 10 7 8 8 9 9 10 10 10 8 8 9 9 9 9 9 8 8 8 8 7 7 7 8 7 6 6 6 6 6 6 7 7 6 6 6 6 5 5 5 5 5 4 5 5 4 4 4 4 3 3 3 3 3 4 4 3 3 3 3 3 3 3 3 3 3 3 5 5 2
14 10 6 5 5 7 8 6 11 9 8 9 9 8 6 7 9 8 8 9 8 7 9 9 8 8 8 8 9 9 9 9 8 8 8 7 6 6 5 6 7 7 7 6 6 6 6 6 6 6 6 6 6 6 6 5 5 5 4 4 4 4 4 4 4 4 4 4 4 5 4 4 4 4 4 3 3 3 3 4 4 4 4 4 5 2 2
16 15 16 16 17 14 13 9 5 8 4 3 5 7 7 7 9 8 8 7 9 9 9 8 7 7 7 9 8 7 7 8 8 7 6 5 5 5 5 5 6 7 6 5 7 7 6 5 5 6 6 6 7 6 6 6 5 5 4 4 4 4 5 5 5 4 3 4 4 5 4 4 3 3 3 3 3 4 4 4 4 4 4 4 2 2 1
8 8 13 12 9 12 12 13 10 9 9 8 5 4 6 7 8 9 8 9 9 7 7 8 8 7 8 8 8 7 8 8 7 6 5 5 5 4 4 5 5 6 7 7 7 6 5 5 5 3 6 5 6 6 6 6 4 4 4 3 3 4 4 4 4 4 4 4 4 5 5 5 5 4 4 4 4 4 4 4 4 4 3 3 2 2 3
9 9 6 6 6 8 10 10 10 10 10 9 8 8 8 8 9 9 9 8 8 9 8 9 8 9 8 9 8 8 8 7 6 6 5 5 4 3 5 6 6 6 5 5 6 6 6 6 9 10 6 5 6 7 7 6 6 5 4 4 3 4 4 4 4 4 4 4 4 4 4 6 7 5 5 5 4 5 5 5 5 4 4 3 4 4 3
7 11 8 8 7 8 9 9 9 10 9 10 10 9 8 7 8 7 8 9 8 8 9 9 9 10 9 7 8 7 6 6 5 5 5 4 4 6 6 6 6 5 5 6 6 6 5 5 9 10 6 5 5 6 7 11 6 5 5 5 4 4 3 4 4 4 4 4 4 4 6 5 5 5 5 5 5 6 5 5 5 5 5 4 5 5 5
5 10 11 10 9 8 8 7 8 10 10 8 5 5 9 9 8 9 8 8 8 7 7 9 10 10 8 7 7 7 6 5 5 5 5 5 5 7 7 7 6 5 5 4 5 5 4 6 10 6 5 5 5 6 8 11 10 6 4 4 5 4 5 5 5 5 5 4 5 4 5 5 5 6 5 5 5 6 5 5 5 6 6 4 4 4 4
8 6 7 8 8 9 9 7 6 8 12 12 9 8 6 9 9 10 9 8 6 7 10 10 9 9 8 9 7 6 5 4 4 5 5 5 4 8 7 5 4 3 2 3 4 5 5 7 6 6 6 6 6 6 8 11 10 5 5 5 5 5 5 5 6 6 6 6 6 6 6 6 6 6 6 6 6 7 7 7 6 4 4 4 5 6 6
9 10 10 10 9 9 9 8 6 6 6 11 14 11 9 9 9 10 9 8 5 6 9 9 9 9 7 7 7 6 4 3 4 5 5 5 6 6 4 6 7 6 5 8 6 5 8 11 7 5 5 5 5 5 5 9 9 5 5 4 4 4 4 4 5 5 6 6 7 8 6 7 7 8 7 7 7 6 5 6 5 4 3 4 5 4 4
11 10 8 10 10 9 10 10 8 6 7 7 8 9 8 10 10 11 9 9 6 6 7 8 9 8 7 7 7 6 4 5 5 5 4 6 6 6 6 5 6 5 5 5 5 6 7 7 6 5 5 6 5 8 6 7 6 4 4 4 3 4 4 4 5 5 5 5 7 7 7 7 7 7 7 6 6 6 6 6 5 5 5 5 5 4 5
9 10 10 10 10 9 9 9 10 10 7 7 7 8 8 7 10 11 9 8 7 6 7 6 8 9 8 7 7 6 7 6 7 7 7 7 5 5 5 4 4 4 7 7 7 6 6 6 6 6 6 7 6 12 11 5 5 5 5 5 5 4 4 4 3 3 3 3 2 3 4 4 4 5 5 5 4 3 3 2 2 3 3 3 1 2 5
12 12 11 11 10 10 11 10 11 12 10 7 7 8 9 9 10 10 9 8 8 8 8 7 8 9 8 7 7 7 6 5 6 7 7 6 6 5 4 2 1 3 7 5 5 5 6 5 6 5 9 9 8 12 10 6 5 5 5 5 5 4 3 3 2 2 3 3 4 4 4 3 3 3 3 3 3 3 3 3 3 3 4 4 4 5 5
10 11 11 12 10 9 10 11 10 11 12 8 6 7 9 8 8 10 9 8 7 7 8 8 7 7 7 7 7 6 5 5 5 5 6 5 4 3 1 2 2 4 7 4 3 4 5 5 5 8 11 12 12 10 6 5 5 5 5 5 5 4 4 4 3 3 4 4 4 3 3 3 2 2 3 3 3 3 3 3 3 3 4 5 6 6 5
8 9 12 12 13 12 11 11 13 12 10 9 8 8 8 8 7 7 8 8 8 7 6 7 7 7 5 5 5 5 5 5 6 5 5 3 3 1 1 3 4 3 4 6 4 4 4 4 7 11 9 10 9 9 5 5 5 5 4 4 4 4 4 4 4 4 4 4 4 4 3 3 3 3 2 2 2 1 2 3 3 4 4 3 2 4 6
9 8 10 12 12 10 9 10 10 11 11 11 9 7 6 7 7 6 6 7 7 7 7 7 7 7 7 7 7 6 4 3 2 2 3 4 4 3 2 3 2 3 6 6 4 4 4 8 10 9 9 9 8 6 5 5 5 5 4 4 4 4 3 3 3 3 3 3 3 4 3 3 3 3 3 3 3 3 2 3 3 3 3 4 4 4 4
11 10 10 10 9 10 11 10 10 11 11 10 10 8 5 6 6 6 5 6 6 6 6 6 6 7 8 9 9 8 6 5 2 1 1 1 2 4 4 4 3 5 5 4 4 3 3 4 5 7 7 8 7 5 4 5 5 5 4 4 4 4 4 4 4 4 4 4 4 5 5 4 3 3 4 4 4 4 3 3 3 2 2 3 5 5 5
12 12 11 12 13 11 11 12 12 11 10 10 9 8 7 6 6 6 5 6 6 6 6 5 6 6 6 6 5 5 7 8 6 1 2 2 2 3 3 2 2 3 4 4 4 4 5 5 5 6 7 6 4 4 4 4 4 4 4 4 3 3 3 3 3 3 3 3 4 3 3 3 3 3 3 3 3 3 2 2 2 2 2 3 2 3 4
11 12 11 11 12 12 12 10 9 9 7 7 8 8 7 7 7 6 6 6 6 6 5 5 6 5 4 5 5 4 4 1 3 5 4 3 4 4 3 2 2 3 2 1 0 1 3 4 4 5 5 4 4 3 4 4 4 4 4 4 3 3 3 3 2 2 3 3 3 3 3 3 3 3 2 2 2 2 2 2 2 1 2 2 2 2 2
11 12 11 10 10 10 10 9 8 8 8 8 8 8 7 8 7 6 5 6 6 5 5 5 4 5 4 4 3 3 3 2 1 2 5 5 4 4 3 3 2 3 3 2 0 1 2 3 4 3 2 3 3 3 3 3 4 3 3 4 4 3 4 4 4 4 3 3 3 2 2 2 1 2 2 1 1 2 2 1 1 1 2 1 1 1 1
10 10 11 10 10 9 10 10 10 9 8 8 8 7 7 7 8 6 6 6 6 5 4 3 2 2 4 4 3 3 3 3 3 5 5 4 3 3 3 3 2 2 2 2 2 2 2 1 2 2 2 1 2 2 1 1 2 2 3 3 3 3 3 3 2 3 3 2 2 2 2 2 2 2 2 2 2 2 2 2 2 2 1 1 1 1 2
10 9 8 8 8 7 6 6 7 7 7 8 8 8 7 7 7 6 5 8 7 6 6 5 4 4 3 3 4 3 3 4 4 5 4 3 3 3 3 4 4 4 3 3 3 3 3 3 2 2 1 1 2 3 3 1 1 1 1 2 2 2 2 2 2 2 2 3 2 2 2 2 2 2 1 2 1 1 2 1 1 1 1 1 1 1 2
Wind_Direction
291 166 227 287 186 137 153 35 355 11 357 39 38 358 336 64 146 212 300 359 82 254 332 357 360 354 359 4 25 57 98 96 84 96 79 53 29 58 119 133 114 107 138 152 140 155 230 176 163 165 166 172 171 173 172 171 171 178 172 168 174 182 186 190 197 194 191 195 197 200 199 198 205 213 216 222 229 233 228 226 226 230 232 229 233 225 226
338 323 293 310 211 134 125 40 14 322 48 62 47 7 6 96 102 198 101 95 79 43 30 17 22 13 14 50 18 54 93 112 112 106 95 89 77 47 142 140 129 115 123 134 136 132 156 189 176 164 163 169 175 174 175 174 174 171 163 175 174 179 185 195 195 187 186 189 195 195 197 202 208 210 213 217 223 232 235 231 232 233 233 236 234 235 235
331 304 323 31 47 61 105 141 41 16 346 92 57 50 5 334 102 94 89 82 68 41 29 32 29 65 102 90 60 48 55 82 99 102 123 142 144 169 141 142 139 132 130 133 138 151 165 176 179 175 175 169 168 174 177 179 178 168 163 164 174 180 191 186 166 163 172 186 182 196 204 209 212 209 213 211 215 226 234 232 232 225 208 216 217 222 227
302 311 9 314 267 79 80 350 358 12 16 46 38 55 9 318 349 352 139 73 59 122 83 59 40 45 42 41 42 48 53 77 93 112 134 150 158 163 159 150 149 144 142 151 158 166 168 165 167 171 175 179 180 187 177 172 153 147 153 157 161 139 32 117 154 157 160 160 174 191 188 204 207 214 212 205 208 212 218 224 228 260 330 238 297 266 246
267 267 357 334 38 37 338 295 275 242 219 223 325 91 60 25 315 334 18 355 296 102 95 67 37 46 36 31 23 31 52 56 91 105 115 129 144 152 156 162 165 164 158 149 138 121 110 110 133 132 160 175 190 184 168 130 108 87 74 117 120 124 168 218 186 152 146 150 150 149 162 163 163 165 178 181 187 186 205 355 40 26 9 18 9 353 6
240 302 336 354 55 271 245 243 260 164 162 160 68 22 20 39 18 23 64 229 17 84 70 47 22 8 13 344 310 307 84 94 80 78 88 90 77 72 75 87 93 82 82 90 128 161 157 154 149 139 146 143 91 75 100 112 130 136 129 104 115 128 102 30 92 109 111 116 120 114 110 113 121 120 138 143 74 59 65 60 53 44 18 4 331 18 27
241 328 22 33 280 238 247 290 290 125 129 110 111 175 123 78 130 210 261 323 336 337 117 138 133 318 0 26 27 31 10 48 99 94 69 64 65 63 69 78 82 89 106 120 115 94 131 132 121 107 96 94 97 105 116 112 100 80 59 91 102 110 113 119 113 102 100 93 91 96 99 103 99 81 56 52 58 65 76 102 136 176 205 215 64 31 20
38 52 54 121 245 240 274 280 284 268 86 64 38 318 273 182 163 198 187 278 270 279 138 103 116 117 355 10 35 29 32 25 56 84 71 66 69 70 65 74 64 82 99 108 111 106 102 124 126 126 135 133 115 112 97 93 97 110 118 108 94 97 91 96 91 80 72 65 85 84 89 88 91 84 77 75 70 57 29 20 38 3 1 40 22 5 343
186 179 143 227 296 323 268 283 201 180 176 152 141 226 272 214 188 176 166 195 202 185 339 9 262 107 76 334 19 37 44 49 52 63 61 58 59 60 49 51 63 61 74 80 77 74 65 67 86 111 137 124 114 111 115 123 119 108 104 109 113 106 108 117 105 99 98 83 58 44 18 27 67 77 106 117 121 142 143 136 141 263 249 197 185 222 249
120 131 19 349 21 302 274 243 293 337 145 137 136 108 288 246 212 180 165 184 168 187 143 262 318 71 86 6 342 28 46 54 63 62 63 60 54 46 37 36 41 41 51 54 53 69 73 63 55 68 71 91 109 112 109 109 114 115 115 104 106 112 97 75 76 87 100 112 118 123 134 69 49 51 33 75 83 111 124 128 169 232 232 189 175 223 302
81 53 126 204 164 245 216 240 228 217 184 116 113 59 289 255 176 179 173 169 165 172 185 278 340 296 107 277 307 41 57 61 63 68 58 50 48 47 54 53 48 34 30 43 44 55 62 55 27 39 60 72 81 89 97 105 104 102 97 100 91 90 85 78 80 78 81 89 102 109 106 90 105 124 134 121 118 99 105 159 191 255 295 107 69 48 46
178 140 124 228 201 214 264 228 253 210 140 112 72 29 278 242 167 180 168 167 160 161 89 22 37 288 132 159 156 69 70 72 73 80 80 73 65 55 48 40 49 60 53 63 53 46 45 41 28 36 57 71 67 56 39 40 50 53 58 65 74 78 69 67 70 71 82 94 95 99 98 83 70 75 84 82 92 101 79 65 68 64 66 72 76 64 59
156 150 231 328 299 269 259 240 238 239 164 92 89 190 238 228 156 197 155 150 126 113 110 94 56 304 123 106 109 94 89 81 75 70 74 76 76 71 57 48 42 45 45 48 55 52 42 35 32 40 74 72 69 75 84 84 76 68 52 58 54 63 67 64 62 63 58 63 74 67 65 76 75 66 55 93 90 86 96 88 86 83 89 93 89 78 68
158 180 139 218 238 240 200 255 183 178 129 171 202 237 221 153 152 182 161 140 131 140 135 146 164 104 96 100 101 94 82 87 89 85 81 78 69 69 71 70 61 51 57 54 55 54 43 45 45 49 66 72 71 68 61 51 46 51 70 54 49 63 66 65 62 58 60 62 62 64 55 62 70 55 51 74 79 88 91 96 93 81 76 79 77 76 66
74 44 76 17 231 302 123 147 71 92 138 227 214 123 355 64 123 136 142 143 164 133 105 126 113 108 101 98 104 105 101 92 90 88 81 75 73 75 76 71 70 73 65 64 59 56 44 42 44 56 69 69 66 65 65 49 34 46 57 66 62 60 60 61 60 57 50 44 46 52 58 56 72 68 53 74 61 57 67 76 85 88 92 105 105 100 91
144 137 152 196 213 229 286 184 189 231 203 203 178 141 97 120 124 135 132 151 167 133 121 117 106 101 107 108 109 101 95 94 88 84 79 72 68 65 62 77 83 82 75 61 57 47 50 51 49 50 67 71 66 68 70 67 60 50 55 56 56 61 64 59 54 51 49 50 51 46 47 58 67 67 52 49 51 59 77 93 105 106 109 112 110 105 102
131 192 212 247 236 235 272 217 238 254 293 293 194 148 173 140 131 145 122 155 151 129 122 109 110 109 109 115 119 113 111 106 106 103 96 93 92 85 82 71 67 62 71 74 74 58 49 53 49 53 59 76 71 62 20 39 69 83 86 87 85 83 81 84 85 80 70 56 50 48 39 36 52 50 49 40 49 26 62 78 91 102 107 109 109 101 93
238 227 202 246 4 349 322 295 252 15 20 359 356 302 129 145 149 145 137 143 130 127 126 119 106 114 122 114 107 106 105 102 98 94 90 86 84 79 76 73 67 74 72 72 73 70 52 49 55 53 55 66 73 65 53 62 64 73 72 72 72 72 74 73 74 73 68 52 50 44 45 43 53 46 45 44 58 34 32 45 60 85 110 110 108 109 105
73 232 327 43 322 286 287 205 124 70 52 42 19 331 312 126 114 124 137 131 126 134 131 123 128 127 125 117 116 111 109 104 106 104 102 98 102 106 97 84 91 86 88 79 70 66 58 33 52 53 60 60 76 80 71 69 69 72 75 69 64 59 59 63 57 67 73 65 50 34 39 46 52 48 46 52 55 48 27 16 4 34 79 118 116 95 108
114 227 281 281 266 257 283 353 67 53 38 29 27 356 331 6 115 129 135 125 119 150 134 135 128 130 129 123 123 110 105 106 101 103 109 109 90 70 80 80 86 84 82 86 80 73 63 42 50 54 51 46 44 56 53 53 61 66 69 70 70 66 68 75 80 78 82 77 68 42 32 40 34 34 35 41 62 51 39 16 9 11 14 26 35 31 62
298 304 288 259 234 12 17 39 82 83 88 67 37 357 337 26 14 18 89 133 152 162 159 136 127 119 125 130 131 118 105 95 96 103 110 104 104 105 92 81 89 103 105 95 93 87 75 56 66 58 51 40 34 41 39 48 61 64 60 55 58 53 53 62 59 63 58 55 58 66 60 54 49 39 27 16 59 77 59 46 324 1 36 60 56 7 45
227 193 197 178 119 61 286 44 86 88 72 76 50 347 314 45 30 360 357 35 66 111 141 145 134 132 129 127 121 110 104 109 108 105 99 100 101 100 110 110 109 96 91 102 95 82 61 59 75 70 58 46 34 34 40 43 55 64 60 52 50 43 42 54 55 61 49 49 47 53 54 54 56 65 56 61 28 65 59 47 48 8 356 83 15 13 96
222 229 198 186 140 117 200 180 173 111 93 93 117 210 191 106 107 87 8 337 36 69 65 90 134 132 128 122 107 101 104 108 118 122 120 107 88 75 76 80 67 78 82 86 85 72 48 52 65 68 63 52 54 45 54 61 72 78 75 70 60 43 49 53 73 73 68 66 52 60 52 55 59 72 42 70 62 55 77 79 70 55 61 53 46 31 49
265 189 160 176 157 155 181 190 159 127 126 131 171 181 126 126 158 115 82 352 7 80 67 66 85 115 106 108 111 110 107 113 107 94 81 87 95 99 80 95 103 90 81 80 89 89 41 47 49 41 42 34 41 36 47 58 73 80 82 95 101 85 71 25 64 87 81 100 100 91 62 65 84 81 78 18 360 28 40 58 66 67 59 49 50 64 50
201 191 155 178 157 126 134 153 146 138 135 152 154 158 164 148 116 101 105 79 301 107 98 80 59 90 108 104 107 111 107 96 100 101 96 90 82 79 85 91 96 107 117 110 95 83 66 65 53 38 44 17 28 44 40 40 63 68 62 84 106 92 74 66 54 88 109 106 115 109 139 122 359 9 15 359 333 322 340 57 68 59 41 36 39 50 61
153 107 89 82 97 115 114 91 78 144 154 158 129 128 135 132 134 126 130 147 141 92 96 96 87 69 91 98 97 99 89 84 88 86 80 80 79 81 83 85 67 48 48 42 43 41 38 40 44 36 28 2 2 5 40 51 66 76 69 68 92 100 75 73 110 74 72 121 149 187 187 192 204 230 258 235 251 234 298 340 349 28 70 47 28 3 42
108 122 105 84 85 73 159 147 165 175 152 127 116 120 117 109 100 99 91 80 79 79 88 95 97 95 87 92 91 86 93 87 76 73 78 72 67 69 114 123 106 100 93 80 61 62 71 59 46 42 34 1 344 354 10 38 58 55 53 69 77 30 76 118 93 83 70 118 170 140 185 206 234 262 289 257 221 209 214 216 221 196 173 327 29 114 320
142 152 148 146 177 173 196 359 113 124 129 120 113 110 113 105 101 95 92 87 78 73 67 77 95 90 83 81 89 83 75 74 76 71 64 55 47 61 81 95 101 97 92 82 66 58 61 51 44 40 29 8 357 34 53 26 22 30 26 22 21 27 8 55 106 133 163 205 231 212 233 246 235 274 287 312 303 271 254 239 238 205 195 210 203 275 230
155 137 16 58 130 118 95 99 94 103 94 86 104 113 112 99 97 97 94 98 105 95 85 76 73 86 93 85 86 86 82 79 72 64 64 58 54 60 68 76 75 73 69 62 50 44 51 53 53 53 34 359 4 23 83 103 94 84 24 1 335 326 314 303 326 300 278 221 204 205 211 211 238 312 303 298 293 299 267 254 240 233 191 174 203 215 219
122 87 106 115 123 122 117 118 130 128 127 131 117 115 120 115 106 106 113 108 101 96 105 100 89 83 88 83 79 91 92 90 91 81 67 56 51 49 58 74 68 55 50 44 35 33 43 42 42 39 15 357 3 10 32 47 45 49 69 144 175 231 273 284 280 285 266 266 268 275 277 262 260 263 282 273 266 264 272 242 241 229 212 209 200 184 178
95 110 118 122 124 132 131 139 136 138 134 132 124 115 107 112 119 118 115 111 99 101 98 99 98 93 85 91 93 92 95 91 84 78 69 62 54 52 54 62 72 63 58 45 35 37 39 35 32 22 353 351 2 11 20 25 17 6 360 357 350 339 340 330 287 247 222 265 268 253 255 265 269 273 271 276 283 286 243 251 249 225 207 214 214 201 201
104 101 112 123 132 125 119 127 134 140 149 143 127 130 139 132 135 136 134 121 124 122 113 103 101 101 105 104 100 94 88 84 78 73 67 62 56 51 60 76 84 83 71 55 46 41 43 40 25 352 339 349 355 2 14 16 12 3 357 345 343 341 330 321 316 318 302 287 282 275 260 247 228 210 242 262 274 277 279 280 264 234 223 216 221 219 163
112 104 97 110 101 126 136 161 143 153 158 157 152 146 144 135 131 134 134 128 114 108 106 108 110 115 116 110 102 97 94 88 80 73 68 64 56 51 56 73 79 80 67 52 48 41 40 28 351 334 352 357 1 359 1 0 1 353 337 346 331 324 328 334 332 322 313 303 291 281 269 280 282 281 261 266 250 246 241 248 246 252 239 230 231 182 153
152 167 171 170 159 163 161 180 170 136 114 95 132 131 126 132 131 129 126 121 116 116 118 121 120 116 111 103 101 102 103 89 76 72 72 75 67 53 48 64 76 82 80 60 45 35 18 2 346 358 2 9 13 11 5 1 350 340 339 340 331 323 316 315 318 317 308 301 297 300 308 305 294 282 287 285 287 280 271 252 248 241 233 232 215 149 198
157 157 160 166 159 152 150 150 159 152 142 133 123 118 129 134 133 134 135 128 126 126 123 116 112 107 101 97 92 92 90 102 112 106 97 84 83 72 80 76 70 73 63 49 37 23 356 336 317 20 26 13 15 11 3 355 347 326 318 297 299 290 295 296 303 282 287 289 296 296 288 281 270 275 281 291 287 284 280 273 254 236 217 198 178 163 167
110 106 110 112 128 141 143 147 151 150 145 143 144 140 139 140 134 132 129 123 120 120 120 115 111 101 95 97 99 102 107 112 114 109 101 95 97 107 81 71 66 63 57 46 26 5 351 335 354 21 24 9 11 357 349 347 357 348 312 298 280 289 287 285 289 299 299 294 290 284 283 284 286 278 267 264 276 280 278 275 263 239 213 192 174 167 153
131 135 138 132 135 139 138 137 142 137 135 136 136 130 126 128 123 112 115 118 122 124 124 119 105 99 98 100 104 104 105 120 124 118 121 117 114 82 77 71 55 56 54 41 351 338 325 331 11 20 24 12 7 351 342 350 351 352 345 331 306 284 279 271 277 280 288 292 295 293 292 291 284 281 279 281 280 280 277 268 259 251 235 184 179 166 159
128 137 141 140 140 137 134 134 131 118 111 101 86 114 131 127 123 120 117 115 116 116 109 102 105 111 109 104 91 93 99 99 102 97 87 83 98 91 69 67 50 42 50 20 333 333 319 4 18 21 17 13 1 347 342 341 349 359 355 336 316 309 300 299 299 299 303 301 299 293 288 285 281 277 270 268 260 264 266 262 252 237 227 200 173 154 143
97 86 103 118 120 120 115 109 114 123 127 123 119 107 105 115 118 114 109 105 113 115 105 106 107 101 100 98 95 88 83 94 107 100 90 72 85 89 90 70 51 31 291 311 1 5 12 24 21 23 19 4 350 348 347 348 352 0 351 343 340 327 324 320 319 314 310 307 305 299 291 285 276 275 271 266 265 265 267 263 248 225 205 170 156 163 164
130 136 139 132 127 126 118 115 111 109 119 135 137 137 142 125 121 113 111 106 98 107 113 118 111 111 110 110 109 109 118 105 102 90 87 80 78 80 77 45 24 2 6 32 28 20 25 25 25 17 2 346 341 338 343 356 3 359 352 352 349 340 327 316 308 307 308 309 306 309 305 301 297 291 280 278 278 268 257 255 246 225 200 172 176 167 154
139 137 138 131 131 132 128 123 112 107 110 105 112 123 131 129 124 114 115 118 117 108 113 117 114 114 120 124 122 122 104 80 74 77 87 75 63 57 62 39 356 340 4 37 33 30 24 21 14 8 343 356 343 357 8 5 8 356 360 352 347 348 344 338 336 327 321 315 313 310 305 302 299 293 289 282 274 265 264 254 245 228 200 185 169 158 144
139 132 128 127 128 127 120 117 116 106 92 99 107 111 114 118 118 119 123 119 116 110 107 107 118 125 127 121 118 102 87 77 76 69 65 73 80 83 73 49 1 335 41 44 28 27 16 10 9 2 2 2 359 4 12 11 1 357 354 353 351 360 359 2 358 356 342 339 328 316 316 317 311 304 305 300 304 314 319 327 1 24 23 13 31 173 161
141 139 137 133 128 129 130 130 125 122 115 108 113 114 114 110 109 111 112 112 113 111 106 109 114 114 115 113 107 101 101 101 92 87 81 76 79 79 90 91 333 358 56 53 42 20 21 4 8 355 15 15 14 13 15 8 2 357 354 352 355 2 7 15 24 17 8 11 8 1 357 354 350 339 340 351 2 5 13 35 51 54 63 66 59 38 26
140 134 134 132 131 130 127 122 119 119 120 121 118 117 115 112 117 121 122 121 119 121 123 124 120 119 118 118 117 122 128 125 119 119 106 92 63 19 297 133 63 53 63 58 42 35 21 6 8 20 20 19 20 20 16 1 358 3 359 360 359 10 13 20 17 20 23 27 23 19 12 14 16 8 30 33 38 47 52 52 55 67 78 91 103 99 74
128 139 138 136 135 132 135 138 139 136 128 124 120 114 115 117 118 121 125 127 129 133 130 131 131 131 130 127 132 139 143 146 148 136 118 124 119 144 314 66 74 68 65 59 48 37 12 15 24 25 24 23 21 25 18 10 5 9 10 7 3 9 14 23 23 24 27 22 20 13 17 19 16 17 12 17 37 45 79 103 107 112 111 108 80 98 109
129 124 125 128 130 131 129 120 114 118 121 118 109 106 113 124 128 129 131 134 137 143 148 145 140 139 135 125 120 115 111 117 150 199 170 158 154 185 198 127 112 94 68 62 39 33 16 29 28 26 22 24 25 21 14 7 11 10 11 12 8 7 11 3 20 26 28 22 23 28 30 13 22 24 25 22 27 37 29 39 50 60 90 110 104 105 117
129 128 127 120 113 116 118 119 122 119 118 120 126 137 144 137 134 135 135 134 135 137 135 133 131 140 142 138 137 133 130 113 72 29 40 249 128 124 115 108 81 73 61 50 36 20 15 25 28 30 25 29 30 23 8 4 13 16 15 17 16 9 12 14 19 18 24 26 30 28 31 35 25 13 21 29 28 33 31 39 39 55 74 103 113 119 122
137 133 132 132 129 127 125 128 130 135 144 148 145 140 144 139 130 127 130 127 122 118 113 113 126 134 138 141 146 151 149 142 127 212 254 135 128 102 89 32 62 74 68 45 32 351 20 52 41 36 34 36 27 15 12 7 10 11 5 11 24 27 20 16 18 19 29 40 39 34 32 36 28 36 39 43 42 49 54 63 60 47 41 60 87 109 130
128 129 129 128 131 135 136 137 136 136 140 139 136 141 142 136 130 131 132 124 119 116 117 121 126 142 149 157 156 154 158 144 124 176 198 171 152 146 150 119 128 111 92 127 22 307 337 17 27 26 32 32 33 22 21 11 7 11 4 3 6 10 24 24 22 14 31 41 41 49 43 44 38 26 35 42 47 67 88 100 106 112 123 128 122 126 116
128 127 131 137 140 144 144 140 147 151 147 145 144 145 145 137 132 149 145 139 138 128 120 128 133 143 154 164 145 156 176 198 258 130 140 159 155 141 145 142 142 180 189 174 209 259 319 343 340 354 21 21 7 24 19 25 11 0 10 12 16 14 14 20 24 34 39 46 48 57 53 58 54 71 61 40 24 28 44 51 60 124 146 136 121 118 119
143 146 151 156 154 155 157 155 155 152 154 150 145 147 149 152 151 149 150 143 132 136 140 141 130 160 165 163 146 147 162 178 164 153 144 158 154 158 161 171 201 201 192 174 185 226 221 199 243 302 313 352 345 339 320 7 347 7 11 3 11 9 9 14 9 18 8 23 21 27 34 29 24 26 24 23 39 44 40 49 51 49 45 64 93 98 100
145 140 135 133 135 135 131 125 135 143 143 141 144 147 151 147 140 139 144 154 149 150 155 146 188 238 198 188 167 160 155 166 167 158 165 163 162 175 203 201 201 221 213 198 215 232 238 249 266 273 252 296 303 307 322 354 11 285 328 358 4 10 359 352 6 355 3 10 13 359 7 12 360 3 360 357 355 347 347 350 8 14 33 47 94 136 150